Temp
3 3 3 3 3 3 3 3 3 3 3 2 2 2 2 3 3 4 4 4 4 3 4 6 7 6 6 6 5 6 5 5 5 5 7 7 7 9 9 9 8 8 7 5 8 8 8 6 8 7 6 6 6 6
3 3 2 2 3 2 3 3 3 2 2 2 2 2 2 3 3 4 4 4 4 2 3 3 4 6 5 6 6 6 6 7 7 4 4 5 6 7 8 9 10 8 9 7 6 6 5 4 4 4 5 5 6 7
2 2 2 2 2 2 2 2 2 2 2 2 2 2 2 2 3 3 3 3 3 2 3 3 4 9 8 7 7 5 6 8 7 6 5 5 6 4 7 7 9 9 9 6 6 5 4 4 3 3 3 4 5 5
2 2 2 2 2 2 2 2 2 2 2 2 2 2 2 2 2 3 3 3 2 2 3 5 9 9 10 9 8 8 8 8 7 5 5 4 6 8 7 8 8 6 6 3 5 4 3 2 2 2 2 2 4 4
2 2 2 2 2 2 2 1 2 2 2 2 2 2 2 2 2 2 3 3 3 3 4 3 5 9 11 10 9 9 8 7 6 3 4 3 6 5 6 7 6 5 4 5 5 3 3 2 1 1 1 1 2 3
1 1 1 2 2 2 2 2 2 2 2 2 2 2 2 2 1 2 3 3 4 3 3 3 6 9 10 10 9 9 7 5 4 4 1 3 7 5 5 4 4 4 3 3 3 2 2 1 1 1 1 0 1 1
1 1 1 0 1 2 2 2 1 1 2 1 1 1 2 2 1 2 2 2 3 3 3 3 4 8 9 9 6 5 6 5 4 4 4 4 5 6 4 4 4 3 3 3 2 2 1 0 0 0 1 1 0 0
1 0 1 1 0 2 2 2 1 1 1 1 1 1 1 1 1 2 3 2 3 3 3 4 3 6 9 5 4 5 5 6 4 4 5 5 6 6 4 4 5 4 3 2 2 1 0 -0 -1 -1 -1 -0 -1 -1
1 1 1 1 1 1 2 1 1 1 1 1 1 1 1 1 1 3 4 4 3 2 3 3 4 2 8 5 4 5 5 4 4 4 5 5 3 3 3 4 3 3 3 3 2 2 1 -0 -1 -2 -2 -2 -3 -4
0 0 0 1 1 1 1 1 1 1 1 1 1 1 -1 2 3 4 2 2 2 2 3 3 5 3 5 3 4 4 4 5 3 4 5 3 1 1 1 1 2 1 1 1 1 -0 -0 -1 -2 -2 -3 -3 -4 -5
0 0 0 0 0 1 1 1 1 0 0 1 1 0 2 3 3 3 2 2 3 3 2 3 4 3 6 4 2 3 5 5 5 5 6 5 3 1 -0 -1 -1 -1 -2 -3 -4 -5 -5 -4 -3 -4 -5 -6 -6 -7
-0 -0 -0 -0 -0 0 1 1 0 0 1 1 1 1 1 2 2 2 3 2 3 4 2 3 3 5 5 4 4 4 5 5 5 5 5 3 0 -1 -1 -1 -2 -3 -4 -5 -6 -7 -7 -7 -7 -7 -7 -8 -8 -9
0 -0 -0 -0 -0 0 0 1 0 1 1 1 1 1 1 2 2 2 3 3 2 3 4 3 2 3 4 5 2 4 6 5 3 4 3 0 -1 -1 -2 -3 -5 -5 -6 -6 -7 -8 -9 -9 -9 -9 -10 -10 -10 -10
0 -0 -0 -0 -0 -0 1 1 0 0 1 -0 1 -0 1 3 3 2 3 3 3 3 4 3 2 3 2 4 5 5 4 5 5 4 2 -1 -2 -3 -4 -5 -6 -7 -8 -8 -9 -9 -9 -10 -10 -10 -10 -10 -10 -10
-0 -0 -0 -0 -0 -0 1 1 -0 -0 0 0 1 0 3 3 3 3 3 3 2 3 4 3 3 4 3 4 5 4 5 3 4 1 -2 -3 -4 -4 -6 -6 -7 -8 -9 -9 -8 -9 -9 -9 -10 -10 -10 -10 -10 -10
-0 -0 -0 -0 -0 0 -0 -0 -0 -0 1 0 1 1 2 3 3 3 3 3 2 1 1 2 3 5 2 6 5 3 4 3 1 -2 -3 -5 -6 -7 -7 -7 -7 -7 -8 -8 -8 -9 -9 -9 -10 -10 -10 -10 -10 -10
-0 0 0 -0 -0 -0 -0 -1 -0 -1 -1 1 1 0 1 2 3 2 2 2 2 2 3 5 4 6 3 3 5 3 1 -3 -3 -3 -4 -6 -7 -9 -8 -7 -7 -7 -7 -8 -8 -8 -8 -9 -9 -10 -10 -10 -10 -10
0 1 0 -0 -1 -1 -1 -0 0 1 1 -0 -1 1 0 0 1 1 1 1 2 3 3 4 3 4 3 5 2 -1 -3 -3 -4 -5 -6 -8 -7 -7 -7 -7 -7 -7 -7 -8 -8 -8 -8 -8 -8 -8 -8 -9 -9 -10
1 1 0 -1 -1 -0 -0 -1 0 0 -0 -1 -1 -0 -0 -0 -2 -1 0 1 2 3 3 2 2 4 2 -0 -1 -2 -4 -4 -5 -6 -7 -6 -6 -7 -7 -7 -7 -7 -7 -8 -8 -8 -7 -7 -7 -7 -7 -8 -8 -9
1 0 -0 -0 1 2 1 0 1 1 -1 -2 -1 -1 -0 -0 -1 -1 0 1 2 2 2 1 1 -0 -2 -4 -4 -3 -4 -5 -5 -6 -7 -9 -7 -7 -7 -7 -7 -7 -7 -7 -6 -6 -7 -7 -7 -7 -8 -8 -9 -10
-1 -1 -0 0 0 0 1 1 1 1 -0 -1 -0 0 -1 -2 -1 0 -1 1 1 0 -1 -2 -1 -2 -2 -2 -2 -3 -4 -4 -6 -6 -7 -8 -7 -7 -7 -6 -6 -6 -6 -6 -6 -6 -6 -7 -8 -8 -9 -9 -10 -10
-0 -1 -1 -1 -0 0 0 1 1 1 0 -0 0 0 0 0 0 -0 -1 -0 -1 -4 -4 -5 -3 -4 -4 -5 -3 -3 -3 -3 -4 -5 -5 -6 -6 -6 -6 -5 -5 -5 -5 -5 -6 -7 -8 -8 -8 -9 -9 -10 -10 -10
-1 0 -0 -0 0 0 0 3 1 1 -1 0 1 0 -1 -0 -1 -0 -1 -1 -5 -4 -3 -3 -2 -2 -4 -3 -2 -2 -3 -4 -5 -5 -5 -4 -4 -4 -5 -5 -5 -5 -5 -6 -6 -8 -8 -9 -9 -9 -9 -10 -10 -10
1 0 1 1 1 1 0 1 1 1 1 0 1 0 1 -0 -1 -2 0 -3 -6 -3 -3 -4 -4 -4 -4 -4 -6 -3 -2 -3 -4 -4 -4 -5 -5 -5 -5 -5 -5 -6 -6 -6 -7 -8 -8 -9 -9 -9 -9 -10 -10 -10
-0 -1 -0 1 1 1 1 1 1 1 0 0 -0 -1 -2 -2 -4 -2 1 -4 -3 -3 -3 -3 -4 -4 -5 -7 -5 -3 -2 -3 -4 -5 -4 -4 -4 -5 -5 -6 -6 -7 -7 -7 -8 -8 -9 -9 -9 -10 -10 -10 -11 -10
1 -1 -0 1 2 2 2 1 0 1 1 -1 -2 -2 -3 -3 -2 -2 -1 -3 -3 -3 -4 -4 -4 -4 -4 -3 -4 -4 -3 -3 -3 -4 -3 -4 -5 -5 -7 -9 -8 -8 -8 -8 -8 -9 -9 -9 -10 -10 -10 -10 -11 -11
0 -1 -0 0 1 2 0 1 2 -1 -2 -3 -3 -4 -4 -4 -3 -3 -4 -5 -4 -3 -3 -3 -2 -3 -3 -3 -4 -3 -3 -3 -3 -4 -5 -5 -5 -5 -5 -6 -8 -8 -8 -9 -9 -9 -9 -10 -10 -10 -11 -11 -11 -12
-1 -0 -3 -2 -2 -1 -0 -1 -2 -2 -1 -1 -1 -3 -4 -4 -4 -5 -4 -2 -2 -3 -2 -2 -1 -1 -2 -4 -4 -5 -5 -5 -6 -6 -7 -8 -8 -8 -8 -8 -8 -9 -9 -10 -10 -10 -10 -10 -10 -11 -11 -11 -12 -12
-1 -1 -4 -8 -5 -4 -4 -4 -3 -4 -4 -3 -3 -5 -6 -6 -7 -8 -5 -3 -2 -2 -2 -4 -5 -4 -5 -6 -5 -5 -6 -7 -8 -12 -13 -13 -11 -11 -10 -10 -10 -10 -11 -11 -11 -11 -11 -11 -11 -11 -12 -12 -12 -13
-4 -3 -5 -6 -6 -4 -7 -7 -6 -8 -6 -6 -6 -6 -8 -9 -7 -7 -5 -3 -3 -3 -4 -6 -6 -6 -7 -8 -9 -8 -8 -8 -7 -8 -10 -11 -10 -11 -11 -11 -12 -12 -12 -12 -12 -12 -13 -13 -13 -13 -13 -13 -13 -13
-3 -2 -3 -4 -5 -7 -8 -9 -7 -7 -8 -6 -7 -8 -10 -10 -7 -7 -7 -6 -5 -6 -6 -6 -6 -7 -7 -8 -9 -9 -8 -8 -8 -8 -7 -7 -8 -10 -11 -12 -12 -12 -12 -12 -12 -13 -13 -13 -13 -13 -13 -13 -13 -14
-4 -4 -5 -5 -7 -8 -8 -6 -5 -4 -7 -6 -8 -10 -9 -10 -9 -9 -9 -9 -6 -6 -6 -6 -6 -7 -6 -7 -7 -7 -7 -9 -9 -9 -8 -9 -10 -11 -11 -12 -12 -12 -12 -13 -13 -13 -13 -13 -13 -13 -13 -13 -14 -14
-5 -5 -5 -7 -8 -6 -7 -6 -5 -6 -4 -5 -5 -5 -6 -8 -11 -11 -10 -11 -11 -8 -7 -6 -7 -7 -7 -7 -8 -8 -8 -9 -10 -10 -10 -10 -11 -11 -12 -12 -13 -13 -13 -13 -14 -14 -14 -14 -14 -14 -14 -15 -15 -15
Height
715 718 722 731 739 744 750 755 760 765 770 774 776 779 783 784 787 788 790 791 793 796 790 786 785 786 784 785 790 784 785 783 782 784 776 775 771 761 756 760 757 757 761 773 756 753 758 768 753 759 773 771 769 767
714 718 723 729 735 743 749 754 760 765 769 774 777 780 782 786 787 788 790 793 794 796 793 788 784 781 783 783 787 784 785 783 780 790 790 784 783 773 767 758 754 757 758 765 772 775 782 782 783 784 780 777 774 768
715 719 723 728 733 740 747 754 760 765 769 774 777 780 783 785 787 789 791 793 795 796 790 785 778 773 774 776 779 787 783 779 782 784 788 785 782 783 777 773 761 758 759 771 773 781 783 786 789 788 787 784 781 779
715 720 723 730 734 740 747 753 760 765 769 772 776 779 782 784 786 789 791 793 795 797 795 782 773 772 772 772 775 778 779 780 782 783 787 789 784 770 776 769 769 777 775 787 782 788 791 792 794 794 792 790 786 784
716 720 724 730 735 740 746 753 759 764 768 772 775 779 782 784 786 789 790 792 794 798 794 789 778 767 766 771 773 775 777 780 782 792 789 793 778 779 773 771 779 783 789 784 786 795 793 797 799 797 795 794 791 789
717 722 727 731 735 741 746 752 758 763 768 772 775 779 782 784 787 789 790 789 791 794 796 793 774 767 768 770 772 773 776 780 784 787 793 784 772 781 779 785 788 788 792 793 793 795 796 799 799 798 797 797 795 794
719 723 727 732 736 741 746 751 757 763 768 772 776 779 782 784 786 787 789 789 789 794 795 793 782 766 767 770 773 777 778 781 784 784 785 781 777 775 782 785 788 791 794 795 796 795 797 798 800 800 798 795 796 797
720 724 728 733 737 742 746 751 757 763 768 773 776 779 782 784 786 787 786 788 788 791 793 790 784 774 768 775 781 778 780 781 783 783 779 776 772 771 780 783 786 790 793 795 797 798 799 801 801 802 800 797 798 800
720 725 729 733 738 743 747 751 757 763 768 773 777 780 783 785 785 784 785 787 789 793 788 787 782 788 768 775 779 781 780 785 780 782 776 774 781 785 786 786 790 792 795 794 796 797 800 801 803 803 803 803 803 806
721 726 730 734 739 744 748 752 757 762 769 774 778 781 784 780 781 783 787 788 788 788 788 782 773 780 771 777 780 783 782 779 783 775 767 777 793 798 798 797 798 799 800 799 797 803 802 803 805 806 808 810 811 813
722 727 731 736 740 744 748 753 757 763 769 774 776 778 776 778 781 783 785 785 783 781 780 773 768 774 764 776 783 779 776 776 775 767 765 768 785 798 802 803 804 806 807 809 810 811 811 810 810 811 814 816 816 817
722 727 732 736 741 745 749 754 758 763 767 770 772 774 774 778 779 781 776 776 773 768 764 764 763 763 764 764 772 776 774 772 770 761 767 783 797 801 804 806 809 810 812 815 816 817 818 817 817 818 819 821 821 821
722 727 732 737 741 745 749 754 759 764 766 770 772 772 769 770 772 770 765 762 767 754 751 755 766 762 764 765 777 773 769 770 769 766 776 792 799 802 806 810 814 816 818 819 821 822 822 823 823 823 824 825 825 824
721 726 732 737 741 745 749 754 760 764 767 771 771 774 765 753 752 753 749 747 743 744 748 754 761 764 766 769 767 769 772 766 765 771 784 796 802 806 810 814 817 821 822 823 825 826 826 827 827 826 826 826 826 826
721 726 732 738 742 746 750 755 760 764 766 768 766 766 752 744 746 745 743 742 740 741 746 755 758 760 766 769 767 769 767 774 770 785 797 802 805 809 813 817 820 822 824 826 827 828 829 829 829 829 829 829 829 828
720 728 732 737 742 747 751 756 760 764 766 766 763 759 752 744 747 746 745 743 742 745 749 753 761 758 770 759 765 773 764 769 779 792 799 804 809 813 816 818 821 823 825 827 828 829 830 831 831 832 832 831 831 831
720 724 730 737 743 748 751 754 760 764 765 760 757 757 757 753 748 750 749 749 749 750 753 749 758 751 760 766 759 767 774 791 791 796 801 805 810 815 817 819 822 824 826 828 829 830 831 832 832 833 833 833 834 834
721 724 730 738 744 749 751 755 758 759 759 759 762 757 757 758 754 754 753 752 751 749 750 752 752 757 761 754 769 779 786 790 795 799 804 808 812 815 818 820 823 825 827 828 829 830 831 832 833 833 833 833 834 834
721 726 733 739 744 746 751 757 757 756 757 757 757 756 756 757 757 755 754 753 752 749 751 754 760 754 761 769 774 780 786 791 797 803 807 810 813 816 818 821 824 825 827 828 830 830 831 831 832 832 833 833 833 834
724 729 734 740 744 744 749 753 754 754 757 757 755 757 756 756 757 756 755 755 753 752 755 760 760 764 769 770 771 777 784 790 795 803 809 812 814 816 819 821 823 824 826 827 828 829 830 832 832 832 832 833 834 835
728 734 739 744 747 747 748 749 748 748 751 754 753 754 757 758 758 757 758 755 757 758 763 765 765 767 767 769 773 778 784 789 794 798 804 810 813 815 818 819 821 823 824 826 828 828 829 831 832 832 833 834 834 835
728 735 740 746 747 745 745 744 745 747 750 751 752 753 754 754 754 756 757 759 759 763 763 765 766 769 772 774 777 780 784 788 793 798 803 806 810 812 815 816 819 820 822 823 825 827 829 830 831 832 832 833 834 834
732 738 740 744 743 742 744 741 743 745 752 749 748 750 754 753 754 754 759 755 761 758 759 762 766 769 773 776 778 782 785 787 793 797 800 803 806 809 812 814 816 818 820 823 824 826 828 829 830 831 832 832 832 833
733 736 735 735 736 739 741 739 739 741 744 746 744 749 747 751 754 758 750 754 758 757 760 763 766 771 776 778 780 782 785 787 792 796 799 801 804 808 811 813 815 817 819 822 823 825 827 828 829 830 831 831 832 832
733 738 736 730 732 735 734 736 735 737 741 742 746 748 752 752 761 754 740 751 752 754 758 762 766 768 772 777 779 781 783 786 790 794 797 800 803 807 810 812 815 817 819 821 823 824 826 827 828 829 830 830 831 831
722 730 730 723 724 724 726 729 734 732 735 744 746 744 748 754 752 750 736 739 743 746 750 754 759 764 769 771 775 778 781 785 789 793 796 798 801 803 807 810 813 816 817 818 820 822 823 824 825 827 827 828 828 829
723 727 725 723 721 719 725 722 721 732 740 743 743 748 751 756 751 743 740 739 742 744 748 752 756 760 763 768 774 778 781 784 788 792 795 797 799 802 803 805 808 811 814 816 818 819 821 822 823 824 825 826 826 827
722 722 731 727 727 724 725 728 731 733 730 727 733 743 749 747 747 746 741 739 740 744 749 754 757 759 763 768 772 776 780 783 786 791 795 798 800 802 803 805 807 810 812 814 816 817 819 820 822 823 823 824 825 825
725 725 731 743 734 733 737 737 734 737 738 735 736 743 749 751 753 751 747 745 746 748 751 754 757 758 763 768 773 777 780 783 786 793 797 800 801 803 803 805 806 809 811 812 814 816 817 818 819 820 821 822 823 824
730 727 733 738 741 737 744 744 743 743 741 741 742 747 753 756 756 753 749 751 751 753 755 758 762 763 768 772 777 781 783 785 787 790 793 794 795 798 800 803 805 807 809 811 813 814 815 817 818 819 820 822 822 823
728 725 728 732 740 744 746 744 744 743 742 743 745 749 757 759 758 757 755 755 755 757 759 763 766 769 771 774 777 781 784 786 787 788 790 790 792 794 797 800 803 805 807 809 811 813 814 815 817 818 819 819 820 821
731 731 735 737 746 746 745 743 742 741 746 746 751 753 756 759 764 765 767 762 761 762 763 765 767 771 773 775 778 780 782 784 786 788 789 790 792 794 796 799 802 804 806 808 810 811 813 814 815 816 816 817 817 818
733 733 734 741 745 743 744 743 741 745 741 744 748 749 752 759 771 774 773 770 769 765 765 766 768 770 773 775 777 780 782 784 786 788 790 791 792 794 796 799 800 803 805 806 808 810 811 812 813 814 814 815 816 816
Wind_Speed
21 17 37 34 30 26 24 22 19 16 15 14 10 9 9 6 5 5 3 3 4 1 5 5 5 4 4 2 1 5 5 5 4 5 3 3 2 3 4 4 8 4 3 2 3 4 3 17 8 7 6 7 8 9
18 18 20 27 32 27 24 22 20 17 14 15 12 10 9 8 7 5 3 4 2 1 4 14 23 26 17 12 1 4 2 3 2 3 3 3 3 3 5 4 3 3 2 2 4 2 3 6 6 7 10 9 11 9
17 18 16 17 23 32 28 22 21 18 16 15 12 11 9 9 6 7 1 6 4 1 5 2 5 5 5 16 20 2 2 2 4 2 1 2 2 3 3 3 4 3 7 3 3 6 7 9 7 9 10 11 10 11
17 18 17 14 17 22 26 23 23 19 17 13 12 12 9 8 8 5 4 6 4 1 2 5 13 4 4 7 17 16 8 3 2 1 0 2 1 2 2 4 3 3 5 4 3 5 5 9 7 7 9 11 11 10
17 18 18 18 18 19 24 25 23 19 16 11 11 13 10 7 7 6 3 7 7 2 2 5 19 12 11 10 7 17 9 2 2 2 1 2 2 3 3 2 2 3 2 2 1 1 4 3 4 6 7 8 10 11
17 18 17 17 16 18 23 24 23 19 16 12 12 12 10 6 6 3 1 8 14 7 0 3 6 4 10 8 10 4 9 2 2 2 3 3 3 2 1 1 4 5 5 3 2 2 6 6 4 4 4 4 8 9
17 16 16 15 15 18 21 22 20 23 17 14 11 12 8 6 9 4 1 1 3 13 2 3 3 2 10 4 4 3 5 1 2 2 2 3 2 2 1 1 7 6 5 4 3 1 5 7 3 5 5 3 9 11
18 17 17 17 15 17 20 20 21 23 18 14 13 10 7 4 5 7 13 6 7 5 1 3 4 1 5 2 1 1 1 1 2 3 2 2 2 3 1 8 9 7 7 6 6 6 5 6 7 8 11 11 10 9
18 17 16 18 17 16 19 20 23 22 18 15 11 9 4 3 4 3 4 6 4 3 1 3 2 3 1 2 2 1 1 2 3 3 3 2 2 3 4 9 9 8 6 4 6 7 6 6 7 8 9 10 10 10
18 16 17 18 17 17 16 19 22 23 20 16 10 4 2 5 7 11 4 2 1 2 3 3 2 2 4 2 2 2 2 2 2 4 2 3 3 5 8 10 9 9 10 10 6 8 6 7 5 7 10 11 12 10
16 17 16 16 16 17 17 17 23 22 20 8 4 4 6 11 5 2 3 3 3 3 4 4 6 3 2 3 3 2 2 2 2 3 3 2 2 3 7 9 8 11 14 13 14 14 14 12 9 9 10 13 12 12
15 18 18 16 16 16 17 18 26 18 11 11 7 2 6 4 3 5 4 3 5 5 3 4 4 6 1 3 3 3 2 1 4 1 2 2 3 7 6 8 8 12 15 14 15 13 14 14 14 14 12 12 12 10
17 19 20 19 17 16 17 22 29 14 15 5 2 1 2 3 6 6 7 3 3 3 3 2 1 3 2 2 3 1 3 4 2 0 2 2 7 6 7 9 10 14 15 14 13 13 13 14 16 15 14 13 12 14
20 22 23 21 18 16 19 25 26 15 4 2 3 4 4 5 5 4 4 5 4 4 6 4 2 3 2 2 2 3 4 2 3 2 2 3 7 8 9 8 9 7 10 11 11 12 12 13 14 14 14 12 12 14
21 23 25 21 19 17 18 27 24 5 2 1 3 4 4 1 2 1 2 1 2 4 6 3 2 3 1 3 3 2 2 3 1 2 2 5 7 8 8 8 7 5 8 10 10 9 10 11 12 12 11 10 10 11
25 24 23 22 21 18 19 25 11 3 2 2 4 3 3 3 2 1 2 2 3 2 2 2 3 3 2 3 3 5 2 2 3 3 5 7 8 7 7 7 11 14 14 12 11 10 10 10 10 9 9 8 8 9
31 10 25 24 22 18 27 8 4 2 3 3 2 1 2 4 3 2 2 2 3 2 2 2 4 4 2 2 3 2 1 3 6 6 5 8 8 7 11 13 13 13 13 13 12 8 7 6 6 6 5 3 3 5
18 18 29 27 24 22 5 3 3 4 4 3 1 2 2 1 2 1 1 2 2 2 2 2 2 1 3 3 3 3 3 6 6 7 6 6 12 16 15 13 13 13 13 11 9 6 4 6 9 7 5 5 6 5
18 26 30 30 21 5 3 2 2 2 2 1 1 0 1 1 1 1 1 3 3 3 1 2 1 1 2 2 5 7 7 6 7 6 6 15 16 16 16 15 15 13 10 9 8 7 6 9 9 6 7 6 8 8
21 33 34 32 13 3 3 2 5 2 3 3 1 1 1 1 0 1 1 2 1 1 2 1 2 1 2 2 4 7 7 8 9 8 6 5 16 17 17 17 15 12 10 9 9 7 7 6 7 6 6 9 12 9
29 26 29 23 5 2 1 3 4 2 2 2 2 3 1 1 1 2 0 1 1 1 2 1 3 4 10 13 16 19 16 16 6 5 8 7 17 18 17 13 16 14 13 12 9 6 12 13 10 8 10 8 8 6
16 23 7 8 1 3 2 3 2 4 2 2 3 3 2 2 2 2 1 0 1 2 3 3 5 5 6 5 13 19 21 21 20 20 19 18 7 9 14 17 14 11 10 11 12 13 13 10 7 6 6 7 6 3
22 12 5 5 3 3 1 4 3 5 3 4 3 2 1 1 2 3 2 1 1 1 7 7 12 16 13 19 20 20 23 22 16 16 19 18 20 19 18 14 11 15 15 12 11 14 10 6 7 5 3 5 7 4
12 4 4 5 4 3 2 3 3 3 2 2 4 3 4 2 2 1 3 3 3 5 5 9 16 9 11 12 3 10 20 22 19 20 18 17 14 18 17 14 13 11 13 11 12 12 9 8 4 4 5 3 5 4
5 4 2 3 3 5 4 4 3 3 3 4 3 2 3 2 2 3 3 3 7 7 8 14 12 8 7 3 9 14 19 23 16 12 21 21 19 19 17 14 12 12 10 10 10 12 10 8 6 5 5 3 5 3
3 4 4 5 4 5 5 5 6 5 3 3 4 2 2 3 3 5 2 6 6 9 10 10 10 9 7 15 8 10 19 22 22 15 15 23 24 22 17 13 15 10 11 8 12 13 13 9 7 8 6 5 5 5
5 3 2 1 2 2 1 1 2 3 4 5 3 4 3 4 5 2 1 0 3 10 20 20 19 15 11 17 20 19 17 23 23 18 17 18 16 13 20 21 17 17 15 12 11 8 10 13 10 8 6 3 6 5
1 3 4 2 3 2 1 1 4 4 1 1 4 4 6 3 1 2 2 8 17 22 21 19 20 18 23 23 25 22 21 25 28 24 18 12 8 8 10 14 17 16 12 11 11 9 7 7 10 9 6 5 8 7
2 1 3 3 2 3 3 3 1 2 3 2 1 2 2 2 3 5 8 11 18 19 14 13 16 26 28 27 26 25 26 26 20 7 5 3 6 6 8 12 14 11 8 11 11 10 10 9 8 8 7 5 5 5
1 1 3 1 2 2 2 2 2 1 1 1 3 2 2 3 8 16 12 10 12 8 11 18 17 20 18 18 16 16 16 17 15 15 7 7 13 16 15 16 15 12 9 9 9 9 8 8 8 7 6 5 5 5
1 1 1 3 3 2 1 1 1 2 2 2 3 3 2 2 4 16 25 14 15 19 19 16 17 18 19 16 16 14 11 10 13 13 12 14 19 19 18 16 16 16 14 11 7 7 8 8 6 5 7 7 6 6
2 2 2 2 2 1 1 2 3 2 1 1 1 2 1 2 2 4 19 23 8 11 14 16 15 13 13 13 15 14 14 14 13 13 14 17 17 17 17 17 15 16 14 12 11 9 9 8 4 4 3 5 4 5
1 2 2 3 2 3 1 1 2 1 0 2 2 1 2 3 3 4 11 20 20 14 11 11 12 16 14 16 17 13 11 13 16 14 13 15 16 17 17 17 16 15 13 13 11 8 7 8 6 4 4 5 4 5
Wind_Direction
196 204 194 196 192 193 188 186 180 181 187 192 185 181 189 183 187 154 78 138 100 261 296 327 341 347 349 22 10 299 4 354 344 25 15 328 4 316 352 39 336 12 19 352 359 24 357 359 18 43 339 22 49 51
167 161 178 199 189 184 188 187 184 187 189 190 189 185 183 183 188 161 92 157 168 110 268 297 286 274 249 251 13 330 268 323 308 40 16 334 329 350 323 6 4 52 8 93 38 71 54 40 39 13 21 35 21 38
171 168 163 171 186 189 177 180 188 184 182 188 187 183 183 184 176 176 115 146 106 353 289 279 248 231 211 231 230 168 309 334 68 148 233 278 305 63 24 309 2 30 26 64 169 38 76 42 31 26 33 25 27 34
165 160 160 166 175 180 181 184 187 181 180 180 188 186 186 183 189 183 179 179 118 191 294 288 350 334 269 199 206 214 244 5 39 56 253 271 265 358 264 265 62 8 8 331 96 61 96 68 32 18 33 32 31 57
169 171 167 165 176 183 185 183 185 181 184 188 183 183 184 177 191 204 238 228 230 165 318 298 309 301 262 190 203 210 214 164 80 2 328 252 278 16 306 100 61 17 33 64 88 333 282 80 47 49 43 32 32 34
164 160 161 168 172 178 182 183 186 182 182 180 177 181 182 179 180 154 310 230 216 196 360 304 308 262 152 180 198 218 152 124 126 174 236 273 261 108 303 58 115 95 74 11 132 123 102 123 82 45 78 45 46 54
163 150 152 162 164 168 175 177 177 178 177 176 175 174 181 185 189 203 178 20 122 189 182 285 273 353 114 80 36 51 81 113 155 234 243 226 271 149 258 124 131 103 91 81 37 144 100 52 57 24 15 62 82 72
172 168 164 157 162 170 170 174 175 170 173 168 164 167 172 177 222 269 253 257 119 118 189 257 265 55 147 125 76 105 108 87 275 228 279 228 281 191 136 120 125 131 125 116 101 81 91 102 70 43 39 45 75 67
164 164 161 167 164 165 169 165 172 175 169 161 152 150 134 184 206 219 210 196 200 178 229 227 218 229 180 98 85 33 125 241 234 211 237 115 280 57 38 92 85 56 46 24 135 126 115 93 84 64 49 44 59 66
166 168 167 163 167 167 162 170 174 172 165 157 141 146 191 209 168 152 106 146 140 193 222 255 214 272 149 127 177 155 191 232 229 230 152 130 90 78 65 63 61 57 48 23 86 47 52 59 91 77 68 62 63 62
170 174 173 171 167 163 165 164 163 151 148 154 161 206 226 161 151 145 199 204 169 210 211 223 194 193 244 129 174 175 209 237 264 244 154 151 112 103 92 77 62 65 62 55 63 53 46 44 58 78 69 64 63 60
171 176 174 171 170 170 173 167 158 151 160 180 168 205 131 177 180 192 206 201 196 213 205 176 201 179 170 86 124 199 226 276 252 237 127 102 102 118 110 96 74 71 78 68 66 63 54 50 63 68 70 66 61 59
185 181 178 174 175 175 176 172 166 155 162 109 192 242 190 191 179 202 186 209 176 215 167 122 39 120 57 84 70 98 230 239 356 52 88 80 125 118 110 95 76 68 76 77 73 71 71 67 71 76 74 74 69 62
189 185 176 175 173 176 176 175 166 147 136 152 181 248 211 185 217 196 188 165 219 122 125 122 112 129 149 82 134 208 228 279 272 161 145 132 122 99 92 93 91 82 86 87 87 86 83 80 74 73 73 73 69 59
189 181 173 174 173 170 171 172 171 139 153 182 218 233 240 326 37 355 298 11 359 124 126 79 59 99 47 138 191 239 240 243 37 152 113 122 113 108 105 104 105 107 109 106 108 107 107 98 85 74 70 69 69 63
176 168 174 176 174 173 169 169 161 127 167 230 240 274 310 280 117 347 357 18 357 102 74 72 125 148 188 186 167 217 240 202 145 99 117 110 105 104 106 104 111 120 121 121 115 107 109 112 112 108 93 84 81 73
163 156 177 173 169 162 162 109 115 158 206 234 243 107 265 275 356 54 16 28 347 103 156 153 150 184 102 176 194 61 160 156 125 119 112 121 123 119 116 118 125 126 126 128 134 136 140 150 155 148 153 156 98 108
162 163 166 165 154 149 108 112 167 182 226 235 211 164 160 330 340 46 7 347 4 339 48 197 142 130 188 195 162 135 109 100 99 110 115 116 122 132 137 137 137 135 136 145 154 156 159 159 159 153 180 170 167 159
163 166 164 159 152 122 125 176 198 215 221 178 107 303 67 93 289 324 344 317 270 280 74 26 79 168 133 113 128 127 132 132 128 122 120 129 142 142 139 139 138 147 160 172 179 202 148 114 110 104 77 80 125 92
165 159 164 167 160 97 105 130 196 183 195 212 165 160 176 113 130 360 335 297 7 25 45 46 75 99 151 131 128 138 134 131 129 126 122 125 140 145 151 156 163 174 185 169 156 160 180 160 127 112 90 90 104 91
142 161 159 166 194 242 152 186 196 166 134 183 147 153 123 126 173 188 91 333 31 108 126 90 97 79 79 98 115 125 134 141 146 149 149 149 168 170 177 195 176 186 186 191 182 159 113 118 116 110 117 105 111 74
130 148 123 179 224 211 211 216 162 158 154 158 159 169 181 179 137 161 154 46 187 197 155 138 132 124 114 119 134 143 156 156 142 140 150 157 168 160 158 173 187 199 156 126 146 130 124 126 125 128 116 126 137 94
130 151 137 165 223 186 222 166 165 171 146 180 152 146 155 140 157 127 215 167 185 187 128 132 136 137 116 124 129 133 136 130 135 142 156 166 167 170 173 178 183 149 136 132 139 142 135 134 134 129 105 153 182 142
131 142 193 190 180 153 173 209 175 153 119 178 177 181 164 138 132 249 246 173 184 138 134 132 131 125 122 135 134 158 152 147 146 156 166 147 141 148 150 137 125 118 151 148 144 139 146 151 166 168 163 143 145 135
128 205 231 188 148 183 192 169 162 152 187 192 142 152 156 125 162 221 235 167 163 164 157 153 154 158 154 148 160 172 159 151 149 151 161 158 150 144 140 143 148 146 151 153 157 160 153 154 159 159 174 168 166 170
205 169 221 176 180 188 175 162 183 175 141 154 193 145 123 163 195 236 242 163 169 171 169 168 166 162 171 171 162 155 162 163 160 158 167 167 162 160 157 147 148 169 183 175 167 175 180 176 179 181 190 214 220 212
194 179 204 244 270 108 90 322 104 126 170 172 168 159 148 187 227 254 36 83 152 166 170 170 173 174 165 154 157 160 170 174 168 152 140 146 156 173 191 186 175 179 185 188 185 170 181 186 188 190 198 181 185 184
82 23 158 256 47 356 132 132 175 186 161 17 119 181 180 192 160 332 294 140 153 159 165 176 179 179 153 150 152 144 132 139 142 146 143 128 132 146 140 147 157 170 179 183 182 187 169 172 188 188 189 178 173 185
72 51 83 16 359 55 44 17 53 58 340 333 184 90 83 39 14 347 360 133 149 148 146 104 104 132 127 139 149 151 152 152 136 128 130 152 152 161 176 169 168 172 174 179 180 186 187 178 171 170 175 181 188 188
139 285 95 80 95 92 67 347 45 326 351 342 118 105 71 27 13 17 27 143 144 133 120 119 126 125 128 128 129 144 168 175 184 174 171 178 184 175 169 162 160 164 154 151 163 182 188 190 186 182 192 198 198 208
267 284 72 79 70 59 118 152 326 324 6 78 37 70 119 141 41 28 26 24 107 112 115 116 124 139 138 140 145 149 160 180 197 205 208 184 175 173 174 174 174 167 173 174 160 158 153 161 173 219 208 208 222 227
36 9 126 108 120 210 252 224 193 155 188 124 95 93 152 86 74 41 13 22 68 122 137 140 138 153 160 164 172 175 188 172 175 172 167 166 167 169 170 170 171 174 176 177 179 184 178 181 193 200 214 217 223 218
83 36 98 117 122 187 210 254 181 118 227 77 70 100 57 69 89 27 16 30 11 2 147 144 150 156 168 169 170 175 182 186 185 176 174 178 177 176 177 178 176 180 184 183 184 190 182 192 193 206 230 239 234 250